Погода в Саксуне

Дания     62°15′00″N   7°10′15″W
темп.,
°C
ветер,
м/с
пор.,
м/с
влажн.,
%
обл.,
%
осадки,
мм/ч
давл.,
гПа
погр.,
м
28 июня, вт
вт2801:00+9вюв4490100 0.1 100880
04:00+9вюв579071 0.0 1008122
07:00+10вюв5886100 0.0 1008274
10:00+11юв5887100 0.0 1007279
13:00+13юв4667100 0.0 1006345
16:00+12вюв6878100 0.0 1006291
19:00+11вюв5692100 0.0 1005202
22:00+11юв569499 0.0 1006152
29 июня, ср
ср2901:00+10вюв579581 0.1 1006178
04:00+10юв579566 0.1 1005217
07:00+11юв5695100 0.1 1006108
10:00+11вюв5691100 0.0 1007185
13:00+12юв469135 0.1 1007243
16:00+13юв45868 0.3 1008270
19:00+13ююв3476100 0.4 1008319
22:00+11вюв3487100 0.0 100964
30 июня, чт
чт3001:00+11юв339499 0.0 101057
04:00+10юв3395100 0.0 100930
07:00+11ююв3392100 0.0 100975
10:00+13ююв0180100 0.0 1009266
13:00+13ю1184100 0.2 1008258
16:00+12св0190100 0.8 100850
19:00+11з1196100 2.1 100754
22:00+11з1198100 1.1 100742
1 июля, пт
пт101:00+11ююв1196100 1.3 100735
04:00+10ююв229462 0.1 100730
07:00+11ю2290100 0.1 100773
10:00+12ююз237944 0.0 1007280
13:00+11юз3586100 0.1 1007354
16:00+11юз568945 0.6 1008319
19:00+11ююз578718 0.8 1008332
22:00+10ююз688837 0.1 1010360
2 июля, сб
сб201:00+9ю699370 0.1 1010221
04:00+9ююз699489 0.0 1010221
07:00+10ююз689391 0.1 1011272
10:00+10юз579449 0.1 1012248
13:00+10зюз689499 0.3 1013390
16:00+10юз71086100 0.1 1014528
19:00+10юз71185100 0.2 1014485
22:00+9юз81193100 0.1 1015502